Vorticity
8 1 -1 2 3 5 4 9 13 10 8 -0 -1 1 6 6 7 6 4 3 0 -1 -1 -1 2 3 4 7 10 12 13 8
-1 -1 3 4 5 8 6 9 7 5 3 5 6 5 -1 -6 -10 -3 2 4 5 1 3 6 3 5 6 6 7 8 9 10
9 10 8 5 8 10 11 12 8 5 3 5 -0 -4 -6 -3 4 15 10 6 12 17 10 8 6 5 6 3 2 5 1 3
7 7 5 8 8 10 13 10 7 0 0 -4 -3 2 9 9 7 15 20 17 12 10 10 11 11 11 9 6 5 1 1 0
11 6 10 11 9 2 4 9 5 -4 -13 8 2 4 7 10 19 16 11 12 14 15 14 13 12 14 16 17 19 24 34 33
13 8 7 7 9 9 4 7 -5 -9 3 1 4 9 14 20 14 13 18 15 15 17 18 17 18 21 24 28 31 31 21 12
13 11 8 8 6 8 12 5 -3 -2 0 8 11 14 15 13 14 14 12 19 21 26 25 23 20 15 16 17 16 16 18 17
12 7 9 2 12 2 9 -4 -3 7 6 5 13 11 10 10 11 14 22 29 27 24 13 21 23 11 6 7 10 9 7 8
12 8 0 -2 5 7 -2 1 12 2 9 14 17 13 14 12 20 24 27 16 24 21 10 5 7 10 12 16 11 14 10 9
6 4 10 4 -0 1 3 5 -0 16 5 23 13 11 9 14 20 18 13 9 20 -0 7 15 19 18 17 17 17 9 15 15
3 9 7 -1 7 5 6 2 17 4 21 14 8 9 9 12 13 17 14 3 4 6 8 5 2 -1 -2 2 3 6 7 3
7 1 -1 7 -4 20 5 16 8 7 17 9 8 11 10 7 9 14 14 11 10 14 1 -3 2 5 4 4 5 6 10 8
4 2 5 -8 11 2 15 5 14 11 11 8 9 11 10 7 10 11 12 13 10 6 2 4 -0 2 -1 5 8 8 8 7
10 -2 5 11 1 14 3 6 12 12 9 8 8 6 8 8 14 9 24 1 4 11 3 6 2 2 6 9 9 13 14 13
-0 6 20 -18 20 3 3 7 12 8 6 7 7 6 6 8 12 10 24 13 18 5 9 4 4 9 13 13 13 13 11 11
12 16 16 15 10 9 -4 14 11 6 8 6 8 8 8 8 9 12 17 17 3 4 4 6 11 13 12 11 9 8 10 9
19 12 17 9 7 1 14 13 9 4 6 7 7 8 9 8 8 9 11 4 25 4 2 13 17 11 8 7 6 6 8 11
12 13 5 1 5 8 9 6 4 9 13 14 10 10 9 8 8 9 12 10 8 16 13 11 9 7 8 9 9 10 10 9
3 -0 3 9 11 11 12 12 8 11 15 20 21 16 15 11 10 9 9 12 15 14 11 9 7 9 8 8 9 10 10 8
Height
3140 3141 3140 3138 3137 3137 3138 3138 3136 3134 3134 3133 3132 3131 3131 3130 3128 3127 3125 3122 3119 3117 3114 3112 3109 3107 3106 3103 3100 3099 3096 3095
3134 3134 3134 3134 3132 3132 3133 3133 3131 3129 3130 3128 3126 3125 3125 3124 3123 3119 3115 3112 3109 3105 3102 3099 3096 3093 3091 3090 3088 3085 3086 3082
3126 3127 3128 3128 3127 3126 3127 3127 3126 3125 3125 3124 3122 3120 3117 3114 3110 3106 3102 3099 3095 3091 3087 3084 3082 3080 3079 3077 3074 3071 3070 3072
3119 3120 3120 3120 3120 3120 3121 3120 3120 3120 3118 3115 3113 3111 3107 3102 3099 3093 3088 3083 3079 3075 3072 3067 3064 3062 3059 3058 3058 3057 3054 3057
3113 3113 3113 3113 3113 3114 3114 3113 3113 3111 3108 3105 3101 3096 3092 3090 3085 3081 3077 3073 3066 3062 3057 3052 3048 3045 3042 3040 3038 3037 3037 3037
3107 3108 3108 3107 3107 3107 3106 3105 3103 3099 3096 3094 3090 3086 3083 3079 3075 3070 3066 3061 3055 3049 3043 3039 3036 3033 3030 3028 3026 3025 3024 3022
3098 3100 3102 3102 3103 3102 3101 3099 3096 3093 3089 3085 3080 3076 3073 3068 3063 3056 3051 3047 3043 3039 3034 3030 3027 3024 3021 3019 3017 3014 3013 3013
3093 3096 3097 3098 3097 3096 3094 3091 3089 3084 3079 3075 3070 3065 3060 3054 3048 3044 3041 3038 3031 3028 3027 3025 3023 3022 3020 3016 3012 3009 3006 3004
3089 3090 3091 3091 3091 3089 3085 3082 3078 3074 3070 3066 3062 3058 3053 3048 3042 3036 3031 3029 3027 3024 3022 3019 3017 3014 3011 3008 3005 3003 3000 2998
3087 3088 3087 3085 3084 3081 3080 3077 3072 3069 3065 3060 3054 3049 3043 3038 3032 3028 3024 3020 3017 3015 3014 3011 3009 3005 3003 3000 2999 2997 2993 2990
3082 3084 3082 3080 3077 3076 3073 3070 3065 3061 3056 3050 3045 3041 3037 3032 3026 3021 3017 3015 3013 3010 3007 3004 3002 3000 2998 2995 2993 2990 2986 2982
3076 3076 3075 3073 3070 3067 3066 3062 3058 3052 3047 3042 3038 3034 3029 3025 3020 3015 3012 3010 3008 3006 3002 2999 2997 2994 2992 2990 2987 2983 2980 2975
3069 3068 3065 3065 3063 3061 3059 3055 3049 3044 3039 3034 3030 3027 3022 3018 3014 3010 3007 3004 3002 3000 2998 2995 2992 2988 2986 2983 2980 2977 2973 2968
3059 3058 3057 3057 3056 3053 3050 3044 3039 3035 3031 3028 3024 3019 3015 3012 3007 3004 3001 2999 2995 2993 2990 2987 2985 2983 2980 2976 2973 2969 2965 2962
3051 3051 3049 3049 3047 3043 3040 3035 3031 3028 3024 3019 3015 3011 3007 3003 3001 2997 2994 2991 2989 2986 2983 2981 2979 2977 2973 2970 2967 2963 2960 2956
3045 3044 3044 3042 3037 3035 3032 3027 3023 3019 3015 3011 3007 3003 3000 2997 2994 2989 2986 2984 2982 2979 2977 2974 2972 2970 2966 2963 2961 2958 2955 2952
3039 3038 3034 3032 3031 3028 3023 3018 3014 3010 3007 3003 3000 2996 2993 2989 2985 2982 2979 2976 2974 2972 2970 2967 2965 2963 2959 2957 2955 2952 2950 2947
3032 3030 3029 3027 3024 3020 3016 3011 3006 3002 2998 2994 2990 2986 2984 2980 2977 2973 2970 2968 2965 2963 2961 2960 2958 2956 2952 2951 2948 2945 2943 2941
3028 3025 3022 3019 3016 3012 3007 3002 2997 2993 2989 2985 2980 2976 2973 2970 2967 2963 2962 2959 2957 2955 2953 2951 2950 2948 2945 2944 2942 2939 2937 2934